CUBESX-HSE-2 (RS21S) (53383 NORAD) Tracking and Keplerian Element Data

This shows tracking and keplerian element data for the satellite.

Feedback or suggestion? Click here.




ElementValue
Catalog53383
NameCUBESX-HSE-2 (RS21S)
Epoch Orbit9776
Epoch Day125.69350747
Epoch Year2024
RAAN47.3561
Inclination97.381
Eccentricity0.0008397
Argument of Perigee162.6244
Mean Anonmoly197.5328
Mean Motion16.09261071
Decay Rate0.01108535
L11 53383U 22096P 24125.69350747 .01108535 74452-3 12623-2 0 9990
L22 53383 97.3810 47.3561 0008397 162.6244 197.5328 16.09261071 97767



Live tracking and technical data element details for CUBESX-HSE-2 (RS21S) (NORAD 53383). CUBESX-HSE-2 (RS21S) can be tracked NOW for your location showing map with azimuth and elevation plus other details from your city location.







IsCatalogInMostPopularTable: catalog: 53383, numindb: 47
Update: records affected: 1



GetName: 53383 CUBESX-HSE-2 (RS21S)

Hit Count: updated at: Thu, 23 Jan 2025 17:58:24 GMT